EHI
93 89 80 60 30 8 1 0 0 0 0 0 0 0 0 0 1 2 4 21 47 45 19 8 7 5 3 3 3 3 3 3 3 3 3 3 3 3 3 3 3 3 3 3 3 3 3 3 3
91 82 66 42 18 5 1 0 0 0 0 0 0 0 0 0 1 2 5 22 44 37 14 7 7 4 3 3 3 3 3 3 3 3 3 3 3 3 3 3 3 3 3 3 3 3 3 3 3
88 77 52 24 8 2 1 0 0 0 0 0 0 0 0 0 0 1 5 19 31 24 11 8 7 4 3 3 3 3 3 3 3 3 3 3 3 3 3 3 3 3 3 3 3 3 3 3 3
80 66 37 13 4 1 0 0 0 0 0 0 0 0 0 0 0 1 3 11 18 19 15 12 8 5 3 3 3 3 3 3 3 3 3 3 3 3 3 3 3 3 3 3 3 3 3 3 3
58 40 17 5 2 1 0 0 0 0 0 0 0 0 0 0 0 0 1 5 14 22 21 15 11 7 3 3 3 3 3 3 3 3 3 3 3 3 3 3 3 3 3 3 3 3 3 3 3
27 17 6 2 2 2 1 0 0 0 0 0 0 0 0 0 0 0 0 2 11 24 24 16 12 8 4 3 3 3 3 3 3 3 3 3 3 3 3 3 3 3 3 3 3 3 3 3 3
7 6 3 2 3 2 1 0 0 0 0 0 0 1 2 1 0 0 0 1 7 19 23 16 8 5 3 3 3 3 3 3 3 3 3 3 3 3 3 4 4 3 3 3 3 2 2 3 3
4 4 3 3 3 3 1 0 0 0 0 0 0 1 3 3 1 0 0 0 2 10 16 12 5 3 3 3 3 4 4 4 3 3 3 3 3 3 4 4 4 4 3 3 2 1 1 3 3
3 3 3 3 3 3 2 1 0 0 0 0 0 1 3 2 0 0 0 0 0 3 6 8 7 5 4 5 7 6 5 5 4 3 3 3 3 3 3 4 4 3 3 3 3 1 1 2 3
3 3 3 3 3 3 3 2 1 0 0 0 0 1 2 1 0 0 0 0 0 0 2 5 9 8 7 10 12 9 6 6 4 3 3 3 3 3 3 3 3 3 3 3 3 2 1 1 2
3 3 2 3 3 3 3 3 1 1 1 0 0 1 2 1 0 0 0 0 1 1 3 6 10 12 11 14 16 12 7 6 4 3 3 3 3 3 3 2 2 3 3 3 3 2 1 0 1
3 3 3 3 3 3 3 2 2 2 2 1 0 1 2 2 1 0 0 1 2 4 6 8 13 15 16 21 23 17 10 6 4 3 3 3 3 3 3 1 1 2 3 3 3 2 1 0 0
3 3 3 3 3 3 1 1 2 3 2 1 0 0 2 3 2 1 0 1 2 5 8 9 11 15 25 35 32 20 13 8 4 3 3 3 3 3 3 2 2 2 3 3 3 2 1 0 0
2 2 3 3 3 2 1 1 1 1 1 0 0 0 2 3 3 2 1 0 1 3 6 7 7 11 29 43 34 20 16 10 4 3 3 3 3 3 3 3 3 3 3 2 2 1 0 0 0
1 1 2 2 2 1 0 0 0 0 0 0 0 0 1 3 4 2 1 0 0 1 3 4 4 6 22 36 31 23 19 11 5 4 3 3 3 3 3 3 3 3 1 1 1 1 1 0 0
0 0 1 2 2 1 0 0 0 0 0 0 0 0 0 1 2 2 2 2 2 2 2 2 3 5 13 25 31 26 20 15 13 8 5 3 3 4 4 4 3 2 1 0 1 2 2 1 1
0 0 1 1 1 1 0 0 0 0 0 0 0 0 0 0 1 3 6 7 7 5 3 3 5 8 15 28 39 37 32 33 32 23 12 6 5 7 9 7 4 3 2 1 1 3 3 2 1
0 0 0 0 1 1 0 0 0 0 0 0 0 0 0 0 3 8 15 18 16 12 8 6 10 18 33 50 61 64 63 63 58 43 27 18 16 20 20 12 5 4 4 3 3 3 3 2 2
0 0 0 0 1 1 0 0 0 0 0 0 0 0 1 2 5 12 21 28 30 29 25 21 22 32 53 75 86 88 89 86 79 65 49 38 31 29 24 12 6 6 5 4 3 3 3 3 3
0 0 0 0 1 1 0 0 0 0 0 0 0 0 1 2 4 10 17 24 31 38 43 45 44 45 60 82 94 96 96 94 90 82 68 50 32 24 17 10 5 6 5 4 3 3 3 3 3
0 0 0 0 0 0 0 0 0 0 0 0 0 0 1 1 2 4 8 11 15 24 38 50 56 56 61 75 89 93 93 92 90 86 72 49 27 15 11 7 4 4 4 3 3 3 3 3 3
0 0 0 0 0 0 0 0 0 0 0 0 0 0 0 0 1 2 2 3 3 7 16 29 40 48 53 65 79 85 84 79 74 70 59 41 25 14 8 5 3 3 3 3 3 3 3 3 3
0 0 0 0 0 0 0 0 0 0 0 0 0 0 0 0 1 1 1 1 1 1 3 9 17 24 34 46 59 64 60 51 46 43 36 26 19 11 4 2 2 2 2 2 2 3 3 3 3
0 0 0 0 0 0 0 0 0 0 0 0 0 0 0 0 0 0 0 0 0 0 0 1 4 9 15 23 30 33 28 22 18 17 13 10 9 7 2 0 1 1 1 1 1 1 2 2 2
0 0 0 0 0 0 0 0 0 0 0 0 0 0 0 0 0 0 0 0 0 0 0 0 1 3 4 6 9 9 7 4 4 3 2 2 3 3 1 0 0 1 0 0 0 0 1 1 1
0 0 0 0 0 0 0 0 0 0 0 0 0 0 0 0 1 1 0 0 0 0 0 0 0 0 0 0 1 1 0 0 0 0 0 0 1 1 0 0 0 0 0 0 0 0 0 0 0
0 0 0 0 0 0 0 0 0 0 0 0 0 0 1 1 2 2 1 0 0 0 0 0 0 0 0 0 0 0 0 0 0 0 0 0 0 0 0 0 0 0 0 0 0 0 0 0 0
0 0 0 0 0 0 0 0 0 0 0 0 0 1 2 2 2 2 1 0 0 0 0 0 0 0 0 0 0 0 0 0 0 0 0 0 0 0 0 0 1 1 0 0 0 1 1 0 0
0 0 0 0 0 0 0 0 0 0 0 0 0 1 1 1 1 1 0 0 0 0 0 0 0 0 0 0 0 0 0 0 0 0 0 0 0 0 0 1 1 1 0 0 1 2 1 0 0
0 0 0 0 0 0 0 0 0 0 0 0 0 0 1 0 0 0 0 0 0 0 0 0 0 0 0 0 0 0 0 0 0 0 0 0 0 0 1 1 1 0 0 1 2 2 1 0 0
Wind_Speed
14 12 8 3 3 1 10 7 7 7 10 10 8 7 15 15 10 7 5 11 18 18 16 14 15 14 13 11 10 10 9 10 10 10 10 10 10 9 9 8 8 8 8 8 7 6 5 5 5
13 7 4 3 2 5 9 6 8 10 8 5 7 11 16 14 12 10 7 13 18 18 15 14 15 14 13 11 10 9 9 9 10 10 10 10 9 9 9 8 8 8 8 8 7 6 5 5 5
13 9 4 2 1 7 8 6 7 9 7 7 6 11 13 8 10 10 10 15 17 16 14 15 15 14 12 11 10 10 9 9 9 10 10 9 9 9 9 9 9 9 9 8 7 6 6 5 5
7 5 4 1 4 9 6 6 5 5 4 5 4 9 12 10 8 13 14 15 16 15 15 15 15 14 12 11 10 10 10 9 10 9 9 9 9 9 9 10 9 9 9 8 7 6 6 6 6
5 4 3 1 4 7 6 7 5 3 7 8 8 13 12 12 14 14 12 15 16 15 15 15 14 13 12 11 10 10 10 10 10 9 9 8 8 9 9 10 10 9 8 8 7 7 7 7 7
3 3 2 2 4 5 4 4 3 4 6 6 6 12 10 11 12 12 11 12 15 16 16 14 14 13 12 11 10 10 10 10 10 9 9 8 8 9 10 10 10 9 8 7 6 6 7 8 7
4 5 2 2 1 3 4 4 5 6 8 11 8 7 11 13 10 10 10 9 12 15 16 13 12 11 11 10 10 10 10 11 10 10 9 9 8 9 10 10 10 9 8 6 6 6 6 7 7
3 6 5 0 3 2 4 3 5 7 7 7 6 9 9 13 11 9 9 8 10 12 15 15 14 12 11 9 11 11 11 11 11 10 10 9 9 9 10 11 10 9 7 6 5 4 5 6 6
4 4 6 6 5 3 4 4 4 2 3 5 9 13 14 13 12 10 8 7 7 9 11 13 13 12 11 11 12 11 10 10 10 9 10 9 6 7 7 10 11 8 7 6 5 4 4 5 5
4 2 3 5 5 4 5 5 5 3 8 8 7 11 13 11 11 10 9 9 9 8 8 8 10 10 9 7 9 7 7 7 7 6 8 6 5 5 7 12 11 9 7 6 6 6 6 6 4
4 3 0 3 8 6 5 5 6 7 8 7 6 7 10 9 9 9 10 10 10 9 8 9 9 9 8 5 7 4 4 5 6 6 8 6 5 4 7 5 6 5 7 5 5 6 5 7 5
4 4 5 6 7 5 5 4 5 9 6 6 6 2 7 8 8 8 9 9 10 10 10 9 10 9 8 7 6 5 4 4 4 6 9 7 4 5 7 6 7 6 4 5 5 5 8 6 5
6 4 3 3 4 5 5 4 1 5 6 7 7 4 3 6 5 6 7 8 10 10 10 10 10 10 9 7 5 7 6 6 7 6 7 7 4 4 4 5 6 6 5 4 4 5 4 1 3
5 6 7 8 7 6 4 4 2 5 6 6 7 7 6 3 1 3 4 5 7 10 10 9 10 10 10 9 7 5 6 5 5 5 6 7 5 3 3 3 5 4 4 5 4 3 3 2 2
6 10 11 10 9 4 3 1 5 4 4 6 7 8 8 6 4 3 3 2 1 6 8 9 9 9 10 11 9 6 5 7 5 5 6 6 5 4 4 3 4 3 3 4 3 1 2 3 3
12 11 10 6 3 1 5 2 5 3 4 4 5 5 5 4 5 8 9 9 7 2 3 8 9 8 8 8 8 6 6 6 5 5 4 5 6 5 4 2 3 3 3 2 2 1 1 2 1
8 6 5 5 7 7 5 2 4 3 2 3 4 5 5 6 9 9 8 8 8 7 4 5 8 8 7 7 6 6 5 6 5 4 3 3 4 5 4 3 2 3 2 2 3 1 1 1 1
10 10 7 2 1 6 9 4 5 4 3 4 4 5 7 10 11 12 11 9 7 7 7 5 6 8 8 6 6 4 4 5 5 4 4 4 2 4 4 3 2 1 2 1 1 2 1 2 1
13 14 14 9 3 6 9 6 3 5 3 3 5 7 9 11 12 13 13 13 11 10 9 8 5 7 7 6 6 6 5 4 4 4 5 4 3 3 5 3 2 1 2 2 1 1 1 1 1
12 13 13 11 9 8 9 10 3 5 5 5 6 8 10 10 11 12 12 13 14 14 14 13 10 5 7 6 8 7 7 5 5 4 4 5 4 3 4 4 3 2 2 1 1 1 1 1 1
13 12 14 14 14 12 13 13 10 6 8 7 7 8 10 10 11 11 11 11 12 13 14 13 14 11 5 6 6 6 6 5 5 5 4 4 4 3 3 3 4 3 3 3 3 3 4 3 3
13 14 15 15 14 11 13 11 5 7 9 11 10 10 10 10 9 9 9 11 12 12 13 14 14 15 10 3 5 8 7 7 6 5 4 4 3 3 3 2 3 2 2 3 4 5 4 5 4
13 14 16 18 15 15 14 13 2 9 11 11 11 11 10 10 9 9 10 11 11 12 12 12 12 12 12 8 2 4 5 5 4 5 6 4 3 3 3 2 2 1 2 3 4 5 4 4 4
14 15 17 14 10 11 9 9 5 9 11 12 13 13 13 12 11 11 11 11 11 11 10 10 10 11 11 10 8 6 7 7 7 7 6 3 3 2 3 2 1 1 1 2 3 4 4 3 4
15 12 7 6 3 2 6 5 8 11 14 15 16 15 14 14 12 12 12 12 11 11 11 10 10 10 10 10 9 8 7 6 6 5 5 4 3 2 2 2 1 0 1 2 2 2 2 3 4
13 12 8 7 7 7 5 6 6 12 14 15 15 15 15 14 12 12 12 11 11 11 10 10 9 9 8 8 8 8 7 5 4 5 4 3 2 1 2 2 2 2 2 2 1 1 3 2 3
11 10 10 8 9 6 4 5 5 15 17 18 17 17 16 15 13 12 11 11 11 11 10 9 8 8 8 7 7 6 6 5 5 4 4 3 2 1 1 2 3 3 4 3 3 2 3 2 1
11 10 6 7 7 6 5 6 9 19 19 19 18 17 17 16 13 12 11 11 10 9 8 8 8 7 7 6 5 5 5 5 4 3 3 1 0 1 2 4 6 6 6 5 3 1 1 1 1
12 12 9 6 5 5 6 4 10 14 16 16 15 15 15 14 13 12 11 10 9 8 8 7 7 7 7 6 6 5 4 3 2 1 1 1 2 3 4 6 6 6 6 6 5 3 2 2 3
11 11 9 5 6 5 3 4 11 12 12 13 13 13 12 12 11 11 10 9 9 9 8 8 7 6 6 5 5 5 5 4 3 2 2 2 3 4 5 5 5 5 4 4 6 5 4 3 4
Wind_Direction
283 251 240 262 270 133 72 68 65 43 52 48 36 41 67 56 43 74 145 152 125 125 132 141 140 138 134 130 126 123 123 123 120 117 114 111 109 108 105 104 103 102 100 97 95 96 101 114 128
289 282 258 246 289 79 78 71 72 61 47 34 37 34 61 63 78 102 148 126 126 128 139 142 143 141 139 138 137 134 132 129 126 122 119 116 114 112 109 103 101 103 103 100 96 96 102 114 124
267 272 263 268 17 77 85 79 79 75 49 29 40 62 54 42 82 121 131 131 131 133 139 135 147 145 146 148 147 144 140 136 133 128 125 121 119 116 111 103 99 98 97 95 92 92 98 111 124
284 273 237 298 74 77 83 94 85 92 91 61 38 75 70 46 66 112 134 142 131 133 130 139 150 152 155 157 156 153 148 145 140 136 132 128 126 121 115 108 100 95 92 88 84 85 92 103 116
260 269 303 316 88 87 78 72 74 76 71 56 56 86 82 72 91 116 147 141 135 135 132 144 152 156 160 162 161 160 157 154 149 146 142 139 135 129 123 116 108 99 91 84 78 79 87 94 102
298 283 1 339 63 75 92 92 76 58 64 68 68 93 94 105 110 133 148 142 143 137 137 143 153 158 162 165 167 167 165 160 158 156 150 147 144 137 132 126 118 107 97 87 78 78 88 96 99
321 300 244 204 88 69 57 32 38 47 53 45 33 85 110 109 115 137 142 149 142 139 139 146 158 162 166 170 174 175 171 166 164 160 156 153 148 143 140 133 126 119 111 100 87 83 95 104 106
309 294 314 25 85 36 33 18 44 21 59 53 34 65 111 118 134 139 143 147 143 147 148 157 163 167 170 172 178 179 177 172 168 164 161 156 153 152 151 147 137 132 126 117 107 103 112 123 131
268 283 353 347 55 20 357 359 45 25 34 61 71 72 100 122 134 138 138 146 157 159 156 160 164 168 172 171 172 175 180 177 170 169 169 165 174 171 172 159 147 147 144 142 142 152 162 164 175
247 316 25 311 25 27 355 2 349 14 41 35 72 99 115 135 143 150 156 166 168 167 162 155 157 160 166 170 154 173 177 173 184 176 174 192 205 187 163 143 156 160 164 169 183 199 209 207 203
288 317 321 343 26 356 347 359 4 29 45 6 15 114 136 148 157 163 172 177 170 173 167 162 163 164 162 156 155 169 165 166 192 182 183 200 203 166 136 156 154 171 183 194 193 211 225 217 206
297 318 337 359 13 331 326 344 21 36 29 348 352 76 150 165 174 177 182 176 168 173 172 174 169 171 170 164 156 155 164 171 180 192 198 197 194 188 166 170 171 180 195 202 187 215 221 218 182
287 297 314 309 292 285 294 298 65 42 3 349 350 359 130 161 178 185 188 175 172 168 174 181 176 177 174 158 159 167 168 174 188 196 207 192 182 197 176 169 166 184 185 175 231 234 192 127 66
309 320 291 274 267 261 265 292 52 42 355 358 1 16 39 61 142 191 200 186 176 167 177 175 177 176 167 158 176 172 170 171 186 189 211 190 175 190 157 175 156 190 167 168 222 235 125 130 92
279 270 265 251 245 242 273 284 68 33 4 12 15 31 25 18 358 358 4 337 201 170 175 168 173 177 173 171 179 167 170 172 184 189 213 186 172 174 163 188 155 193 176 176 215 183 122 124 124
262 260 264 279 247 218 258 199 92 27 17 21 11 21 17 12 360 20 16 357 349 330 194 173 173 178 175 163 166 162 178 171 174 178 203 189 169 177 169 169 154 177 165 160 119 45 99 125 166
283 287 313 8 7 336 297 136 147 119 40 27 22 9 11 11 21 20 11 348 339 327 294 186 175 178 176 162 162 162 174 158 157 163 178 187 170 174 146 131 124 152 132 139 149 180 166 133 147
323 317 305 274 153 284 278 224 159 102 59 30 25 14 20 22 16 11 1 350 335 317 303 271 191 179 179 164 166 160 156 153 154 159 168 177 159 141 119 120 121 112 113 99 102 131 96 54 28
310 302 302 303 213 240 271 274 169 122 81 33 27 26 30 23 12 14 2 356 347 338 320 300 249 196 184 169 168 163 162 157 153 156 159 154 138 121 120 128 143 120 126 145 186 112 106 53 343
313 312 308 310 328 314 298 289 244 142 123 76 35 23 31 19 8 12 5 4 0 355 347 336 324 274 212 184 177 173 165 161 149 143 141 143 150 153 147 156 153 143 131 164 218 150 151 208 236
331 329 333 325 319 304 292 280 257 174 120 92 59 40 33 20 11 8 3 1 0 358 351 342 336 325 286 208 182 170 154 148 140 146 145 152 160 161 148 151 155 175 174 190 214 212 197 207 231
319 332 324 308 298 288 286 285 296 105 73 44 32 34 30 19 9 8 5 3 2 1 354 349 348 345 334 284 196 174 158 155 151 143 134 128 125 132 137 139 144 164 180 197 216 219 211 205 222
316 315 298 285 278 277 276 274 335 53 42 19 6 15 20 14 6 8 12 10 10 7 2 357 360 2 2 5 33 142 131 119 111 114 117 107 89 88 102 101 115 146 185 213 221 227 211 201 210
324 310 292 269 253 260 288 289 50 27 17 4 359 4 9 7 8 17 18 16 14 12 10 7 14 19 23 29 39 70 103 112 115 113 112 102 91 76 77 94 101 124 209 238 240 230 212 204 216
341 337 329 341 333 318 360 22 51 12 11 3 353 359 5 7 9 18 20 18 16 14 15 16 25 30 34 44 49 57 76 95 109 114 115 118 109 112 126 120 132 179 261 279 287 279 250 220 222
346 354 355 330 330 325 3 70 56 9 4 358 353 359 3 7 15 23 24 22 17 15 17 20 28 34 39 52 58 58 62 69 81 88 98 101 103 111 142 162 179 205 229 254 252 298 281 256 238
357 1 334 312 307 311 61 86 42 5 1 357 355 0 3 4 13 24 25 22 17 16 17 21 29 37 40 51 59 63 67 74 78 77 78 79 75 90 160 213 213 219 218 224 232 206 256 239 284
18 355 346 346 342 337 26 50 3 352 351 349 353 358 360 3 10 21 22 19 15 12 13 23 31 40 40 45 51 64 68 73 78 76 69 65 349 255 219 225 223 219 207 203 209 219 274 344 231
17 13 0 341 9 353 346 39 13 350 344 344 351 358 360 4 9 15 14 10 11 10 13 17 22 30 31 33 36 44 52 62 74 91 170 225 238 235 230 233 231 221 202 190 181 196 225 241 260
35 16 7 10 15 6 350 26 9 348 347 352 358 4 5 8 11 9 8 12 13 16 17 19 20 22 22 24 26 24 23 20 12 350 323 301 288 272 257 254 249 244 203 184 172 187 201 219 252